Regional Weather Roundup
Issued by NWS

Home | Current Version | Previous Version | Graphics & Text | Print | Product List | Glossary On
Versions: 1 2 3 4 5 6 7 8 9 10 11 12 13 14 15 16 17 18 19 20 21 22 23 24 25 26 27 28 29 30 31 32 33 34 35 36 37 38 39 40 41 42 43 44 45 46 47 48 49 50
000
ASUS43 KFSD 201502
RWRSD

WEATHER ROUNDUP FOR SOUTH DAKOTA
NATIONAL WEATHER SERVICE SIOUX FALLS SD
1000 AM CDT MON OCT 20 2014

NOTE: "FAIR" INDICATES FEW OR NO CLOUDS BELOW 12,000 FEET WITH NO
SIGNIFICANT WEATHER AND/OR OBSTRUCTIONS TO VISIBILITY.


SDZ001>005-009-010-012>017-201600-
NORTHWEST AND NORTH CENTRAL SOUTH DAKOTA

CITY           SKY/WX    TMP DP  RH WIND       PRES   REMARKS
FAITH            N/A     52  40  63 S13       30.05S
MOBRIDGE       SUNNY     48  43  82 S5        30.07R
$$

SDZ012>016-024>037-041>051-057-063-072>074-201600-
SOUTHWEST AND SOUTH CENTRAL SOUTH DAKOTA

CITY           SKY/WX    TMP DP  RH WIND       PRES   REMARKS
RAPID CTY ARPT SUNNY     49  41  74 SE8       30.05R
PIERRE         SUNNY     46  37  71 CALM      30.09S
CUSTER         SUNNY     58  39  49 CALM      30.13R
ELLSWORTH AFB  SUNNY     52  41  66 S9        30.03F
PHILIP         SUNNY     45  38  76 CALM      30.08S
SPEARFISH      FAIR      57  45  62 CALM      30.04S HAZE
WINNER         FAIR      55  38  52 E6        30.12R
$$

SDZ004>011-016>023-039-040-201600-
NORTHEAST SOUTH DAKOTA

CITY           SKY/WX    TMP DP  RH WIND       PRES   REMARKS
ABERDEEN       SUNNY     46  38  73 SE3       30.10R
WATERTOWN      SUNNY     48  41  76 NW5       30.09R
SISSETON         N/A     51  40  65 N8        30.07R
$$

SDZ017-020-022-023-036>040-048>070-201600-
SOUTHEAST SOUTH DAKOTA

CITY           SKY/WX    TMP DP  RH WIND       PRES   REMARKS
SIOUX FALLS    SUNNY     54  42  64 NW5       30.10R
HURON          SUNNY     47  37  68 CALM      30.11R
CHAMBERLAIN    SUNNY     48  39  70 CALM      30.11S
MITCHELL       SUNNY     49  39  68 CALM      30.12R
YANKTON        SUNNY     50  39  66 NW8       30.12S
$$

ABBREVIATIONS USED IN REMARKS
   TC - TEMPERATURE IN CELSIUS
  WCI - WIND CHILL INDEX
   HX - HEAT INDEX
  VSB - VISIBILITY




USA.gov is the U.S. government's official web portal to all federal, state and local government web resources and services.